When you browse on this site, cookies collect data to enhance your experience and personalize the content and advertising you see.
Visit our Privacy Policy to learn more. By continuing to use the site, you agree to this use of cookies and data.
EN

Hourly Weather Balangir

Today, 3 July, Friday

Time Temperature Precipitation Wind Pressure Humidity
00:00 +34°C° 0 mm 2 mps 735 mmHg 62%
01:00 +32°C° 0 mm 2 mps 734 mmHg 63%
02:00 +32°C° 0 mm 2 mps 734 mmHg 64%
03:00 +32°C° 0 mm 2 mps 733 mmHg 66%
04:00 +31°C° 0 mm 2 mps 733 mmHg 67%
05:00 +31°C° 0 mm 2 mps 734 mmHg 68%
06:00 +31°C° 0 mm 2 mps 734 mmHg 70%
07:00 +32°C° 0 mm 2 mps 734 mmHg 66%
08:00 +34°C° 0 mm 2 mps 734 mmHg 62%
09:00 +35°C° 0 mm 2 mps 734 mmHg 58%
10:00 +36°C° 0.1 mm 1 mps 734 mmHg 52%
11:00 +39°C° 0.1 mm 1 mps 734 mmHg 47%
12:00 +37°C° 0 mm 0 mps 735 mmHg 42%
13:00 +40°C° 0 mm 1 mps 734 mmHg 41%
14:00 +40°C° 0 mm 1 mps 733 mmHg 41%
15:00 +40°C° 0 mm 1 mps 733 mmHg 40%
16:00 +39°C° 0.1 mm 1 mps 733 mmHg 44%
17:00 +38°C° 0.1 mm 2 mps 733 mmHg 48%
18:00 +38°C° 0 mm 2 mps 733 mmHg 48%
19:00 +37°C° 0.1 mm 2 mps 733 mmHg 51%
20:00 +36°C° 0.1 mm 2 mps 734 mmHg 54%
21:00 +35°C° 0.1 mm 2 mps 734 mmHg 58%
22:00 +34°C° 0.1 mm 2 mps 734 mmHg 60%
23:00 +34°C° 0.1 mm 2 mps 734 mmHg 63%

Tomorrow, 4 July, Saturday

Time Temperature Precipitation Wind Pressure Humidity
00:00 +32°C° 0.1 mm 2 mps 734 mmHg 65%
01:00 +32°C° 0.3 mm 2 mps 734 mmHg 67%
02:00 +31°C° 0.3 mm 2 mps 733 mmHg 69%
03:00 +31°C° 0.3 mm 2 mps 733 mmHg 72%
04:00 +31°C° 0.2 mm 2 mps 733 mmHg 73%
05:00 +30°C° 0.2 mm 2 mps 733 mmHg 74%
06:00 +30°C° 0.2 mm 1 mps 734 mmHg 75%
07:00 +31°C° 0.2 mm 2 mps 734 mmHg 70%
08:00 +34°C° 0.2 mm 2 mps 734 mmHg 65%
09:00 +35°C° 0.2 mm 3 mps 734 mmHg 60%
10:00 +36°C° 0.4 mm 2 mps 734 mmHg 55%
11:00 +38°C° 0.4 mm 2 mps 734 mmHg 51%
12:00 +39°C° 0.4 mm 1 mps 734 mmHg 46%
13:00 +39°C° 0.2 mm 1 mps 733 mmHg 46%
14:00 +39°C° 0.2 mm 1 mps 732 mmHg 46%
15:00 +39°C° 0.2 mm 2 mps 731 mmHg 46%
16:00 +38°C° 0 mm 2 mps 731 mmHg 48%
17:00 +38°C° 0 mm 2 mps 731 mmHg 51%
18:00 +37°C° 0 mm 3 mps 731 mmHg 53%
19:00 +35°C° 0.9 mm 4 mps 731 mmHg 61%
20:00 +33°C° 0.9 mm 5 mps 732 mmHg 68%
21:00 +30°C° 0.9 mm 6 mps 732 mmHg 76%
22:00 +30°C° 0.6 mm 5 mps 733 mmHg 78%
23:00 +30°C° 0.6 mm 4 mps 733 mmHg 79%

Day after tomorrow, 5 July, Sunday

Time Temperature Precipitation Wind Pressure Humidity
00:00 +29°C° 0.6 mm 4 mps 733 mmHg 81%
01:00 +29°C° 0.1 mm 3 mps 733 mmHg 81%
02:00 +29°C° 0.1 mm 2 mps 733 mmHg 82%
03:00 +29°C° 0.1 mm 1 mps 733 mmHg 83%
04:00 +29°C° 0.2 mm 1 mps 733 mmHg 83%
05:00 +29°C° 0.2 mm 1 mps 733 mmHg 84%
06:00 +29°C° 0.2 mm 1 mps 733 mmHg 85%
07:00 +30°C° 0.2 mm 2 mps 733 mmHg 80%
08:00 +30°C° 0.2 mm 2 mps 734 mmHg 75%
09:00 +31°C° 0.2 mm 3 mps 734 mmHg 70%
10:00 +33°C° 0.4 mm 3 mps 734 mmHg 66%
11:00 +34°C° 0.4 mm 3 mps 733 mmHg 63%
12:00 +35°C° 0.4 mm 3 mps 733 mmHg 59%
13:00 +36°C° 0.9 mm 3 mps 732 mmHg 57%
14:00 +36°C° 0.9 mm 3 mps 732 mmHg 56%
15:00 +37°C° 0.9 mm 3 mps 731 mmHg 54%
16:00 +36°C° 2.7 mm 4 mps 731 mmHg 60%
17:00 +34°C° 2.7 mm 4 mps 731 mmHg 65%
18:00 +33°C° 2.7 mm 4 mps 731 mmHg 71%
19:00 +32°C° 1 mm 4 mps 732 mmHg 74%
20:00 +32°C° 1 mm 4 mps 732 mmHg 77%
21:00 +30°C° 1 mm 4 mps 733 mmHg 80%
22:00 +30°C° 0.7 mm 4 mps 733 mmHg 80%
23:00 +30°C° 0.7 mm 4 mps 733 mmHg 81%

6 July, Monday

Time Temperature Precipitation Wind Pressure Humidity
00:00 +29°C° 0.7 mm 4 mps 733 mmHg 82%
01:00 +29°C° 0.3 mm 4 mps 733 mmHg 83%
02:00 +29°C° 0.3 mm 3 mps 732 mmHg 84%
03:00 +28°C° 0.3 mm 3 mps 732 mmHg 85%
04:00 +28°C° 0.1 mm 3 mps 732 mmHg 85%
05:00 +28°C° 0.1 mm 2 mps 732 mmHg 85%
06:00 +28°C° 0.1 mm 2 mps 732 mmHg 86%
07:00 +29°C° 0 mm 2 mps 733 mmHg 84%
08:00 +29°C° 0 mm 3 mps 733 mmHg 82%
09:00 +29°C° 0 mm 3 mps 734 mmHg 80%
10:00 +30°C° 0.5 mm 3 mps 734 mmHg 77%
11:00 +32°C° 0.5 mm 4 mps 734 mmHg 74%
12:00 +33°C° 0.5 mm 4 mps 734 mmHg 71%
13:00 +33°C° 0.6 mm 4 mps 733 mmHg 72%
14:00 +31°C° 0.6 mm 3 mps 733 mmHg 72%
15:00 +31°C° 0.6 mm 3 mps 732 mmHg 72%
16:00 +31°C° 0.7 mm 3 mps 732 mmHg 72%
17:00 +31°C° 0.7 mm 2 mps 732 mmHg 72%
18:00 +32°C° 0.7 mm 2 mps 732 mmHg 71%
19:00 +31°C° 1 mm 2 mps 733 mmHg 75%
20:00 +30°C° 1 mm 2 mps 733 mmHg 79%
21:00 +29°C° 1 mm 3 mps 734 mmHg 82%
22:00 +29°C° 0.2 mm 3 mps 734 mmHg 83%
23:00 +29°C° 0.2 mm 3 mps 734 mmHg 84%

7 July, Tuesday

Time Temperature Precipitation Wind Pressure Humidity
00:00 +29°C° 0.2 mm 3 mps 734 mmHg 84%
01:00 +28°C° 0.1 mm 3 mps 734 mmHg 85%
02:00 +28°C° 0.1 mm 3 mps 734 mmHg 85%
03:00 +28°C° 0.1 mm 3 mps 734 mmHg 86%
04:00 +28°C° 0 mm 2 mps 734 mmHg 86%
05:00 +28°C° 0 mm 2 mps 734 mmHg 86%
06:00 +27°C° 0 mm 2 mps 734 mmHg 87%
07:00 +29°C° 0 mm 3 mps 734 mmHg 81%
08:00 +30°C° 0 mm 3 mps 735 mmHg 75%
09:00 +32°C° 0 mm 4 mps 736 mmHg 69%
10:00 +33°C° 0 mm 4 mps 735 mmHg 66%
11:00 +34°C° 0 mm 4 mps 735 mmHg 63%
12:00 +35°C° 0 mm 4 mps 735 mmHg 59%
13:00 +36°C° 0.3 mm 4 mps 735 mmHg 58%
14:00 +36°C° 0.3 mm 4 mps 734 mmHg 56%
15:00 +37°C° 0.3 mm 3 mps 734 mmHg 55%
16:00 +36°C° 1.3 mm 3 mps 733 mmHg 58%
17:00 +35°C° 1.3 mm 3 mps 733 mmHg 61%
18:00 +35°C° 1.3 mm 3 mps 733 mmHg 64%
19:00 +34°C° 1.9 mm 3 mps 734 mmHg 68%
20:00 +33°C° 1.9 mm 3 mps 735 mmHg 73%
21:00 +31°C° 1.9 mm 3 mps 735 mmHg 77%
22:00 +30°C° 0.3 mm 3 mps 735 mmHg 78%
23:00 +30°C° 0.3 mm 3 mps 736 mmHg 79%

8 July, Wednesday

Time Temperature Precipitation Wind Pressure Humidity
00:00 +30°C° 0.3 mm 3 mps 736 mmHg 80%
01:00 +30°C° 0 mm 3 mps 735 mmHg 81%
02:00 +29°C° 0 mm 3 mps 735 mmHg 82%
03:00 +29°C° 0 mm 3 mps 735 mmHg 84%
04:00 +29°C° 0 mm 2 mps 735 mmHg 84%
05:00 +29°C° 0 mm 2 mps 735 mmHg 84%
06:00 +28°C° 0 mm 2 mps 735 mmHg 84%
07:00 +30°C° 0 mm 3 mps 736 mmHg 78%
08:00 +31°C° 0 mm 3 mps 736 mmHg 71%
09:00 +34°C° 0 mm 4 mps 737 mmHg 64%
10:00 +35°C° 0 mm 4 mps 736 mmHg 60%
11:00 +36°C° 0 mm 4 mps 736 mmHg 56%
12:00 +37°C° 0 mm 5 mps 736 mmHg 53%
13:00 +37°C° 0 mm 4 mps 735 mmHg 52%
14:00 +38°C° 0 mm 4 mps 735 mmHg 51%
15:00 +38°C° 0 mm 3 mps 734 mmHg 50%
16:00 +38°C° 0 mm 3 mps 734 mmHg 52%
17:00 +37°C° 0 mm 2 mps 734 mmHg 53%
18:00 +37°C° 0 mm 2 mps 734 mmHg 55%
19:00 +36°C° 0 mm 2 mps 734 mmHg 57%
20:00 +35°C° 0 mm 3 mps 735 mmHg 60%
21:00 +34°C° 0 mm 3 mps 735 mmHg 63%
22:00 +33°C° 0.1 mm 3 mps 735 mmHg 66%
23:00 +33°C° 0.1 mm 3 mps 735 mmHg 68%
Show more